User: anonymous   Login
Location: Unspecified
(43.4680°N, 87.1740°E)
Time: 04:10:31
(UTC+00:00)
Language:

Cosmos 2278 Rocket - Orbit

View from above orbital plane
View from above orbital plane
View from above satellite
View from above satellite

Ground track
Ground track

The orbit data is extracted from the following two-line orbital elements,

1 23088U 94023B   21174.47807322  .00000005  00000-0  27328-4 0  9998
2 23088  71.0015  82.3631 0003013 349.7176  10.3884 14.14695042402785
Epoch (UTC): 23 June 2021 11:28:25
Eccentricity: 0.0003013
inclination: 71.0015°
perigee height: 841 km
apogee height: 845 km
right ascension of ascending node: 82.3631°
argument of perigee: 349.7176°
revolutions per day: 14.14695042
mean anomaly at epoch: 10.3884°
orbit number at epoch: 40278

The dashed part of the orbit path shows where the satellite is in the earth's shadow,  

DLR